Location: Cargill Incorporated Elevator
(42.7294°N, 93.7333°W)
Time: 05:42:42
(UTC+00:00)

USA 32 - Pass Details

Date: 19 January 2026
Orbit: 774 x 780 km, 85.0° (Epoch: 14 February)

Event Time Altitude Azimuth Distance (km) Brightness Sun altitude
Rises 12:14:16 0° 197° (SSW) 3,250 7.2 -15.6°
Reaches altitude 10° 12:16:40 10° 202° (SSW) 2,327 6.4 -15.2°
Maximum altitude 12:21:45 52° 278° (W) 966 4.1 -14.3°
Drops below altitude 10° 12:26:53 10° 355° (N) 2,342 6.3 -13.4°
Sets 12:29:19 0° 1° (N) 3,274 7.1 -13.0°
